Howell, MI

4:31 PM EDT on September 28, 2016 (GMT -0400)
Livingston County

Weather History for KOZW - February, 2013

Change the Weather History Date:

Thursday, February 21, 2013

  Actual Average Record
Temperature  
Mean Temperature 22 °F -  
Max Temperature 25 °F 35 °F 59 °F (1997)
Min Temperature 19 °F 20 °F 3 °F (2008)
Degree Days  
Heating Degree Days 44    
Moisture  
Dew Point 13 °F    
Average Humidity 69    
Maximum Humidity 78    
Minimum Humidity 58    
Precipitation  
Precipitation 0.00 in - - ()
Sea Level Pressure  
Sea Level Pressure 30.28 in    
Wind  
Wind Speed 7 mph (NNE)    
Max Wind Speed 13 mph    
Max Gust Speed 20 mph    
Visibility 9 miles    
Events Snow    
Averages and records for this station are not official NWS values.
T = Trace of Precipitation, MM = Missing Value Source: NWS Daily Summary

Daily Weather History Graph

Daily Weather History Graph

Search for Another Location

Airport or City:

Trip Planner

Search our weather history database for the weather conditions in past years. The results will help you decide how hot, cold, wet, or windy it might be!

Date:

Astronomy

Feb. 21, 2013 Rise Set
Actual Time 7:23 AM EST 6:15 PM EST
Civil Twilight 6:55 AM EST 6:44 PM EST
Nautical Twilight 6:22 AM EST 7:17 PM EST
Astronomical Twilight 5:49 AM EST 7:50 PM EST
Moon 2:26 PM EST (2/21) 4:31 AM EST (2/21)
Length of Visible Light 11h 49m
Length of Day
10h 52m
Waxing Gibbous, 83% of the Moon is Illuminated
Feb 21
Waxing Gibbous
Feb 25
Full
Mar 4
Last Quarter
Mar 11
New
Mar 19
First Quarter

Hourly Weather History & Observations

Time (EST) Temp. Windchill Dew Point Humidity Pressure Visibility Wind Dir Wind Speed Gust Speed Precip Events Conditions
12:14 AM 21.6 °F 9.9 °F 13.1 °F 70% 30.20 in 7.0 mi NNW 11.5 mph - N/A Snow Light Snow
12:34 AM 21.7 °F 11.5 °F 13.5 °F 70% 30.21 in 5.0 mi NNW 9.2 mph - N/A Snow Light Snow
12:55 AM 21.2 °F 12.6 °F 13.8 °F 73% 30.21 in 5.0 mi NNW 6.9 mph - N/A Snow Light Snow
1:14 AM 21.6 °F 13.0 °F 14.0 °F 73% 30.22 in 7.0 mi NNW 6.9 mph - N/A Snow Light Snow
1:35 AM 21.4 °F 15.1 °F 14.2 °F 74% 30.22 in 7.0 mi NNW 4.6 mph - N/A Snow Light Snow
1:54 AM 21.2 °F 13.6 °F 14.9 °F 77% 30.23 in 7.0 mi NW 5.8 mph - N/A Snow Light Snow
2:14 AM 21.2 °F 12.6 °F 14.9 °F 77% 30.23 in 7.0 mi NW 6.9 mph - N/A Snow Light Snow
2:35 AM 21.7 °F 15.5 °F 15.3 °F 76% 30.24 in 7.0 mi NW 4.6 mph - N/A Snow Light Snow
2:54 AM 21.7 °F 13.2 °F 15.3 °F 76% 30.24 in 5.0 mi NW 6.9 mph - N/A Snow Light Snow
3:15 AM 21.2 °F 12.6 °F 15.3 °F 78% 30.24 in 7.0 mi NW 6.9 mph - N/A Snow Light Snow
3:35 AM 21.2 °F 10.9 °F 14.9 °F 77% 30.24 in 7.0 mi NW 9.2 mph - N/A Snow Light Snow
3:54 AM 21.2 °F 10.9 °F 14.2 °F 74% 30.23 in 10.0 mi NNW 9.2 mph - N/A Snow Light Snow
4:15 AM 21.2 °F 12.6 °F 14.0 °F 74% 30.23 in 10.0 mi NNW 6.9 mph - N/A Snow Light Snow
4:34 AM 21.2 °F 13.6 °F 14.4 °F 75% 30.23 in 10.0 mi NW 5.8 mph - N/A Snow Light Snow
4:54 AM 21.2 °F 13.6 °F 14.5 °F 75% 30.24 in 10.0 mi NW 5.8 mph - N/A Snow Light Snow
5:15 AM 21.4 °F 13.8 °F 14.4 °F 74% 30.25 in 10.0 mi NNW 5.8 mph - N/A Snow Light Snow
5:34 AM 21.2 °F 12.6 °F 13.6 °F 73% 30.25 in 10.0 mi NNW 6.9 mph - N/A   Overcast
5:54 AM 21.2 °F 12.6 °F 13.6 °F 73% 30.25 in 10.0 mi NNW 6.9 mph - N/A   Overcast
6:15 AM 21.4 °F 11.9 °F 13.6 °F 72% 30.27 in 10.0 mi NNW 8.1 mph - N/A Snow Light Snow
6:54 AM 21.6 °F 12.1 °F 13.6 °F 72% 30.27 in 10.0 mi NNW 8.1 mph - N/A   Overcast
7:15 AM 21.7 °F 13.2 °F 13.8 °F 72% 30.28 in 10.0 mi NNW 6.9 mph - N/A Snow Light Snow
7:34 AM 21.6 °F 12.1 °F 13.6 °F 72% 30.30 in 10.0 mi North 8.1 mph - N/A Snow Light Snow
7:55 AM 21.2 °F 12.6 °F 14.0 °F 74% 30.31 in 10.0 mi North 6.9 mph - N/A Snow Light Snow
8:14 AM 20.7 °F 14.2 °F 13.5 °F 74% 30.31 in 10.0 mi North 4.6 mph - N/A Snow Light Snow
8:34 AM 20.3 °F 12.5 °F 13.3 °F 74% 30.30 in 10.0 mi NNE 5.8 mph - N/A Snow Light Snow
8:55 AM 19.9 °F 11.1 °F 13.1 °F 75% 30.30 in 10.0 mi NNE 6.9 mph - N/A Snow Light Snow
9:14 AM 20.1 °F 12.3 °F 12.9 °F 74% 30.30 in 10.0 mi North 5.8 mph - N/A Snow Light Snow
9:35 AM 20.3 °F 12.5 °F 12.9 °F 73% 30.32 in 7.0 mi North 5.8 mph - N/A Snow Light Snow
9:55 AM 20.3 °F 12.5 °F 12.7 °F 73% 30.32 in 7.0 mi NNW 5.8 mph - N/A Snow Light Snow
10:14 AM 20.7 °F 15.8 °F 12.7 °F 71% 30.32 in 7.0 mi NNE 3.5 mph - N/A Snow Light Snow
10:35 AM 20.3 °F 12.5 °F 12.2 °F 71% 30.34 in 7.0 mi North 5.8 mph - N/A Snow Light Snow
10:54 AM 20.5 °F 10.8 °F 12.2 °F 70% 30.34 in 7.0 mi NE 8.1 mph - N/A Snow Light Snow
11:14 AM 19.9 °F 13.4 °F 11.5 °F 70% 30.35 in 10.0 mi NNE 4.6 mph - N/A Snow Light Snow
11:34 AM 20.3 °F 12.5 °F 11.8 °F 70% 30.34 in 10.0 mi NNE 5.8 mph - N/A Snow Light Snow
11:54 AM 20.3 °F 12.5 °F 11.7 °F 69% 30.34 in 10.0 mi NE 5.8 mph - N/A Snow Light Snow
12:15 PM 21.0 °F 14.6 °F 11.7 °F 67% 30.34 in 10.0 mi ENE 4.6 mph - N/A Snow Light Snow
12:34 PM 20.8 °F 14.4 °F 11.5 °F 67% 30.33 in 10.0 mi North 4.6 mph - N/A   Overcast
1:15 PM 22.1 °F 14.7 °F 12.0 °F 65% 30.32 in 10.0 mi North 5.8 mph - N/A   Overcast
1:34 PM 23.0 °F 17.0 °F 12.2 °F 63% 30.35 in 10.0 mi WSW 4.6 mph - N/A   Overcast
1:54 PM 22.5 °F - 11.8 °F 64% 30.33 in 10.0 mi Calm Calm - N/A   Overcast
2:14 PM 22.8 °F 18.2 °F 11.8 °F 63% 30.31 in 10.0 mi NNE 3.5 mph - N/A   Overcast
2:34 PM 23.0 °F 17.0 °F 12.4 °F 64% 30.30 in 10.0 mi NE 4.6 mph - N/A   Mostly Cloudy
2:55 PM 23.9 °F 15.8 °F 12.6 °F 62% 30.30 in 10.0 mi ENE 6.9 mph - N/A   Mostly Cloudy
3:14 PM 24.8 °F 17.9 °F 12.7 °F 60% 30.29 in 10.0 mi NNE 5.8 mph - N/A   Overcast
3:55 PM 24.4 °F 16.5 °F 12.9 °F 62% 30.25 in 10.0 mi ENE 6.9 mph - N/A   Scattered Clouds
4:14 PM 24.6 °F 17.7 °F 12.2 °F 59% 30.25 in 10.0 mi NNE 5.8 mph - N/A   Clear
4:34 PM 24.6 °F 16.7 °F 12.0 °F 59% 30.29 in 10.0 mi East 6.9 mph - N/A   Clear
4:55 PM 24.4 °F 20.1 °F 11.7 °F 58% 30.31 in 10.0 mi ENE 3.5 mph - N/A   Clear
5:14 PM 24.4 °F 17.5 °F 11.7 °F 58% 30.31 in 10.0 mi NNE 5.8 mph - N/A   Clear
5:35 PM 24.4 °F 17.5 °F 12.2 °F 60% 30.31 in 10.0 mi NE 5.8 mph - N/A   Clear
5:54 PM 23.9 °F 15.8 °F 12.4 °F 62% 30.31 in 10.0 mi NE 6.9 mph - N/A   Clear
6:14 PM 23.5 °F 15.4 °F 12.2 °F 62% 30.30 in 10.0 mi NE 6.9 mph - N/A   Clear
6:35 PM 23.0 °F 14.7 °F 12.0 °F 63% 30.30 in 10.0 mi ENE 6.9 mph - N/A   Clear
6:54 PM 23.4 °F 16.2 °F 11.7 °F 61% 30.30 in 10.0 mi East 5.8 mph - N/A   Clear
7:15 PM 23.2 °F 13.3 °F 11.3 °F 60% 30.30 in 10.0 mi East 9.2 mph - N/A   Clear
7:35 PM 23.0 °F 13.1 °F 11.8 °F 62% 30.29 in 10.0 mi East 9.2 mph - N/A   Clear
7:54 PM 22.5 °F 11.7 °F 11.8 °F 64% 30.29 in 10.0 mi East 10.4 mph - N/A   Clear
8:15 PM 21.7 °F 10.8 °F 12.0 °F 66% 30.28 in 10.0 mi East 10.4 mph 17.3 mph N/A   Clear
8:34 PM 21.2 °F 9.5 °F 12.2 °F 68% 30.27 in 10.0 mi East 11.5 mph 19.6 mph N/A   Clear
8:54 PM 20.8 °F 10.4 °F 12.2 °F 69% 30.27 in 10.0 mi East 9.2 mph - N/A   Clear
9:15 PM 20.3 °F 9.0 °F 12.2 °F 71% 30.27 in 10.0 mi East 10.4 mph - N/A   Clear
9:34 PM 20.7 °F 8.2 °F 12.6 °F 71% 30.27 in 10.0 mi East 12.7 mph 16.1 mph N/A   Mostly Cloudy
9:54 PM 20.7 °F 11.0 °F 12.7 °F 71% 30.27 in 10.0 mi East 8.1 mph - N/A   Overcast
10:14 PM 20.8 °F 8.4 °F 12.9 °F 71% 30.27 in 10.0 mi East 12.7 mph - N/A   Overcast
10:34 PM 20.8 °F 10.4 °F 13.3 °F 73% 30.26 in 10.0 mi East 9.2 mph - N/A   Overcast
10:55 PM 21.0 °F 9.9 °F 13.6 °F 73% 30.25 in 10.0 mi East 10.4 mph 16.1 mph N/A   Overcast
11:14 PM 21.2 °F 10.1 °F 14.0 °F 74% 30.25 in 10.0 mi East 10.4 mph - N/A   Overcast
11:34 PM 21.6 °F 11.3 °F 14.7 °F 75% 30.25 in 10.0 mi ESE 9.2 mph - N/A   Overcast
11:55 PM 21.7 °F 11.5 °F 15.4 °F 77% 30.23 in 10.0 mi East 9.2 mph - N/A   Overcast